This is the latest recevied weather packets stored in our database for station/object KB9GXK. If no packets are shown the sender has not sent any weather packets the latest 10 day(s).
| Time | Temp. | Humidity | Pressure | Rain* | Wind** | Luminosity | Snow |
|---|---|---|---|---|---|---|---|
| 1778020700 | 13.89° C | 37% | 1009.1 hPa | 0 mm | - | 122 W/m² | - |
| 1778020398 | 14.44° C | 34% | 1009.2 hPa | 0 mm | - | 127 W/m² | - |
| 1778020093 | 14.44° C | 35% | 1009.3 hPa | 0 mm | - | 137 W/m² | - |
| 1778019790 | 14.44° C | 35% | 1009.1 hPa | 0 mm | - | 146 W/m² | - |
| 1778019487 | 14.44° C | 34% | 1009.2 hPa | 0 mm | - | 157 W/m² | - |
| 1778019184 | 14.44° C | 35% | 1009.2 hPa | 0 mm | - | 141 W/m² | - |
| 1778018880 | 14.44° C | 34% | 1009.2 hPa | 0 mm | - | 146 W/m² | - |
| 1778018578 | 14.44° C | 34% | 1009.3 hPa | 0 mm | - | 174 W/m² | - |
| 1778018276 | 14.44° C | 34% | 1009.3 hPa | 0 mm | - | 155 W/m² | - |
| 1778017973 | 14.44° C | 34% | 1009.2 hPa | 0 mm | - | 170 W/m² | - |
| 1778017671 | 14.44° C | 32% | 1009.1 hPa | 0 mm | - | 196 W/m² | - |
| 1778017368 | 15° C | 33% | 1009.1 hPa | 0 mm | - | 178 W/m² | - |
| 1778017065 | 15.56° C | 32% | 1009.2 hPa | 0 mm | - | 157 W/m² | - |
| 1778016763 | 15.56° C | 32% | 1009.3 hPa | 0 mm | - | 385 W/m² | - |
| 1778016458 | 14.44° C | 32% | 1009.1 hPa | 0 mm | - | 311 W/m² | - |
| 1778016156 | 13.89° C | 34% | 1009.1 hPa | 0 mm | - | 255 W/m² | - |
| 1778015853 | 15° C | 32% | 1009.1 hPa | 0 mm | - | 203 W/m² | - |
| 1778015550 | 15° C | 32% | 1009.3 hPa | 0 mm | - | 213 W/m² | - |
| 1778015246 | 15° C | 32% | 1009.2 hPa | 0 mm | - | 236 W/m² | - |
| 1778014943 | 15° C | 30% | 1009.4 hPa | 0 mm | - | 231 W/m² | - |
| 1778014641 | 14.44° C | 30% | 1009.1 hPa | 0 mm | - | 363 W/m² | - |
| 1778014339 | 14.44° C | 33% | 1009.2 hPa | 0 mm | - | 232 W/m² | - |
| 1778014035 | 14.44° C | 32% | 1009.3 hPa | 0 mm | - | 212 W/m² | - |
| 1778013733 | 14.44° C | 32% | 1009.3 hPa | 0 mm | - | 214 W/m² | - |
| 1778013430 | 15° C | 33% | 1009.5 hPa | 0 mm | - | 232 W/m² | - |
* Rain latest hour (hover to see other rain measurements)
** Current wind speed in m/s (hover to see current wind gust speed)